1485486000.01,58052,8.88,73966.3,-6.55,-37.21,-37.39,0,*55
1485486001.29,58053,8.94,73968.5,-6.53,-37.39,-37.69,0,*5E
1485486002.57,58054,8.88,73962.3,-6.53,-37.39,-37.39,0,*5C
1485486003.83,58055,8.88,73964.3,-6.53,-37.21,-37.33,0,*5E
1485486005.12,58056,8.88,73968.3,-6.53,-37.21,-37.39,0,*57
1485486006.38,58057,8.88,73966.8,-6.53,-37.33,-37.51,0,*5B
1485486007.59,58058,8.88,73964.3,-6.55,-37.33,-37.33,0,*56
1485486008.88,58059,8.88,73966.5,-6.53,-37.21,-37.39,0,*58
1485486010.14,58060,8.88,73964.3,-6.53,-37.33,-37.51,0,*5F
1485486011.37,58061,8.88,73962.5,-6.53,-37.15,-37.33,0,*5E
1485486012.63,58062,8.88,73966.8,-6.53,-37.15,-37.21,0,*5E
1485486013.89,58063,8.88,73958.0,-6.53,-37.15,-37.21,0,*5F
1485486015.17,58064,8.88,73964.5,-6.53,-37.39,-37.69,0,*5A
1485486016.45,58065,8.88,73962.8,-6.53,-37.39,-37.51,0,*50
1485486017.65,58066,8.88,73966.0,-6.51,-37.27,-37.45,0,*5B
1485486018.89,58067,8.88,73962.5,-6.51,-37.09,-37.15,0,*53
1485486020.12,58068,8.88,73964.3,-6.51,-37.09,-37.27,0,*5D
1485486021.33,58069,8.88,73962.8,-6.51,-37.27,-37.33,0,*55
1485486022.56,58070,8.88,73964.0,-6.47,-37.21,-37.45,0,*5D
1485486023.79,58071,8.88,73966.3,-6.53,-37.33,-37.33,0,*5B
1485486025.0,58072,8.88,73960.3,-6.47,-36.97,-37.27,0,*57
1485486026.2,58073,8.88,73962.8,-6.51,-37.27,-37.45,0,*5F
1485486027.44,58074,8.88,73966.0,-6.47,-36.91,-37.03,0,*51
1485486028.65,58075,8.88,73964.0,-6.51,-36.97,-36.97,0,*5D
1485486029.85,58076,8.88,73966.5,-6.47,-37.27,-37.45,0,*5D
1485486031.08,58077,8.88,73966.8,-6.47,-37.39,-37.57,0,*50
1485486032.32,58078,8.88,73966.3,-6.47,-37.45,-37.51,0,*52
1485486033.53,58079,8.88,73970.3,-6.47,-37.27,-37.57,0,*51
1485486034.76,58080,8.88,73966.8,-6.51,-37.33,-37.51,0,*53
1485486035.97,58081,8.88,73964.3,-6.47,-37.27,-37.57,0,*56
1485486037.2,58082,8.88,73964.8,-6.51,-37.45,-37.51,0,*50
1485486038.41,58083,8.88,73966.8,-6.47,-37.27,-37.57,0,*54
1485486039.64,58084,8.88,73968.0,-6.47,-37.39,-37.45,0,*5F
1485486040.84,58085,8.88,73966.8,-6.51,-37.33,-37.45,0,*53
1485486042.11,58086,8.88,73966.5,-6.51,-37.51,-37.63,0,*50
1485486043.34,58087,8.88,73970.5,-6.47,-37.45,-37.63,0,*53
1485486044.61,58088,8.88,73964.5,-6.47,-37.39,-37.63,0,*57
1485486045.84,58089,8.88,73964.8,-6.47,-37.27,-37.39,0,*56
1485486047.08,58090,8.88,73966.0,-6.47,-37.21,-37.27,0,*57
1485486048.31,58091,8.88,73966.5,-6.51,-37.33,-37.51,0,*53
1485486049.57,58092,8.88,73968.0,-6.51,-37.51,-37.51,0,*54
1485486050.81,58093,8.88,73970.8,-6.47,-37.03,-37.09,0,*58
1485486052.01,58094,8.88,73970.5,-6.47,-37.27,-37.27,0,*55
1485486053.27,58095,8.88,73968.3,-6.47,-37.09,-37.09,0,*54
1485486054.51,58096,8.88,73970.8,-6.47,-37.27,-37.39,0,*58
1485486055.75,58097,8.88,73970.3,-6.47,-37.45,-37.63,0,*52
1485486056.98,58098,8.88,73966.8,-6.47,-37.57,-37.63,0,*5E
1485486058.22,58099,8.88,73964.8,-6.51,-37.51,-37.75,0,*59
1485486059.48,58100,8.88,73966.8,-6.47,-37.39,-37.63,0,*56
1485486060.74,58101,8.88,73970.8,-6.47,-37.39,-37.63,0,*57
1485486061.98,58102,8.88,73970.0,-6.47,-37.45,-37.63,0,*5F
1485486063.21,58103,8.88,73964.8,-6.47,-37.39,-37.57,0,*52
1485486064.47,58104,8.88,73964.8,-6.47,-37.39,-37.39,0,*5D
1485486065.71,58105,8.88,73964.0,-6.47,-37.27,-37.39,0,*53
1485486066.92,58106,8.88,73968.5,-6.47,-37.27,-37.57,0,*58
1485486068.16,58107,8.94,73968.3,-6.47,-37.45,-37.63,0,*5A
1485486069.39,58108,8.88,73966.0,-6.47,-37.21,-37.27,0,*57
1485486070.63,58109,8.88,73966.5,-6.47,-37.03,-37.09,0,*5A
1485486071.86,58110,8.88,73964.8,-6.47,-37.27,-37.63,0,*58
1485486073.13,58111,8.88,73966.0,-6.47,-37.21,-37.39,0,*50
1485486074.33,58112,8.88,73964.5,-6.47,-37.27,-37.45,0,*5E
1485486075.57,58113,8.88,73964.5,-6.47,-37.27,-37.39,0,*54
1485486076.83,58114,8.88,73966.0,-6.47,-37.21,-37.21,0,*5C
1485486078.06,58115,8.88,73966.3,-6.47,-37.39,-37.45,0,*56
1485486079.29,58116,8.88,73964.0,-6.47,-37.39,-37.45,0,*55
1485486080.55,58117,8.88,73964.3,-6.45,-37.21,-37.27,0,*5B
1485486081.78,58118,8.88,73966.5,-6.43,-37.09,-37.27,0,*58
1485486083.03,58119,8.88,73966.3,-6.45,-37.09,-37.27,0,*5F
1485486084.32,58120,8.88,73964.3,-6.45,-37.09,-37.21,0,*53
1485486085.52,58121,8.88,73966.5,-6.43,-37.27,-37.45,0,*5A
1485486086.78,58122,8.88,73964.5,-6.45,-37.21,-37.27,0,*5D
1485486088.01,58123,8.88,73964.5,-6.43,-37.27,-37.39,0,*53
1485486089.24,58124,8.88,73966.5,-6.45,-37.27,-37.45,0,*59
1485486090.49,58125,8.88,73968.3,-6.45,-37.39,-37.45,0,*57
1485486091.75,58126,8.88,73966.8,-6.45,-37.27,-37.39,0,*50
1485486093.02,58127,8.88,73968.0,-6.45,-37.39,-37.69,0,*5B
1485486094.26,58128,8.88,73970.3,-6.43,-37.45,-37.81,0,*5F
1485486095.48,58129,8.94,73972.0,-6.43,-37.39,-37.45,0,*5D
1485486096.72,58130,8.88,73966.0,-6.43,-37.45,-37.63,0,*5A
1485486098.0,58131,8.88,73966.3,-6.45,-37.39,-37.63,0,*56
1485486099.26,58132,8.88,73964.5,-6.45,-37.27,-37.39,0,*55
1485486100.49,58133,8.88,73966.3,-6.43,-37.39,-37.45,0,*56
1485486101.72,58134,8.88,73962.3,-6.45,-37.45,-37.57,0,*5F
1485486102.97,58135,8.94,73970.8,-6.43,-37.09,-37.09,0,*5B
1485486104.23,58136,8.88,73966.0,-6.45,-37.09,-37.27,0,*52
1485486105.46,58137,8.88,73964.5,-6.43,-37.27,-37.39,0,*56
1485486106.7,58138,8.88,73962.0,-6.43,-37.27,-37.39,0,*59
1485486107.9,58139,8.88,73966.0,-6.43,-37.27,-37.45,0,*53
1485486109.1,58140,8.88,73964.3,-6.43,-37.27,-37.27,0,*59
1485486110.33,58141,8.88,73962.3,-6.43,-37.21,-37.27,0,*5E
1485486111.53,58142,8.88,73962.5,-6.43,-37.27,-37.45,0,*5F
1485486112.76,58143,8.88,73962.0,-6.43,-37.21,-37.45,0,*58
1485486114.02,58144,8.94,73966.5,-6.41,-37.15,-37.39,0,*51
1485486115.28,58145,8.88,73966.0,-6.41,-37.03,-37.21,0,*5E
1485486116.51,58146,8.88,73960.8,-6.41,-36.97,-36.97,0,*5D
1485486117.8,58147,8.88,73966.0,-6.41,-37.21,-37.21,0,*5C
1485486119.04,58148,8.88,73966.3,-6.39,-37.15,-37.21,0,*5B
1485486120.33,58149,8.88,73966.3,-6.41,-37.21,-37.51,0,*55
1485486121.59,58150,8.88,73960.0,-6.41,-37.33,-37.39,0,*50
1485486122.84,58151,8.88,73962.8,-6.41,-37.51,-37.57,0,*5D
1485486124.1,58152,8.88,73966.5,-6.41,-37.33,-37.39,0,*52
1485486125.34,58153,8.88,73966.0,-6.39,-37.03,-37.21,0,*56
1485486126.6,58154,8.94,73968.5,-6.39,-37.21,-37.21,0,*51
1485486127.84,58155,8.88,73964.8,-6.39,-37.21,-37.33,0,*53
1485486129.05,58156,8.88,73964.5,-6.39,-36.97,-36.97,0,*53
1485486130.25,58157,8.88,73964.3,-6.39,-37.33,-37.57,0,*50
1485486131.49,58158,8.88,73962.8,-6.39,-37.33,-37.39,0,*57
1485486132.72,58159,8.88,73966.3,-6.39,-37.33,-37.63,0,*59
1485486133.96,58160,8.94,73966.5,-6.39,-37.33,-37.51,0,*52
1485486135.19,58161,8.88,73964.0,-6.39,-37.15,-37.21,0,*50
1485486136.43,58162,8.88,73962.3,-6.39,-37.15,-37.21,0,*53
1485486137.65,58163,8.88,73962.8,-6.37,-37.27,-37.45,0,*5F
1485486138.89,58164,8.88,73966.3,-6.39,-37.03,-37.21,0,*52
1485486140.09,58165,8.88,73966.0,-6.39,-37.03,-37.33,0,*50
1485486141.3,58166,8.88,73968.0,-6.39,-37.03,-37.33,0,*53
1485486142.53,58167,8.88,73966.5,-6.39,-37.33,-37.51,0,*55
1485486143.76,58168,8.88,73964.0,-6.39,-37.33,-37.39,0,*54
1485486144.99,58169,8.88,73964.8,-6.37,-37.27,-37.33,0,*54
1485486146.22,58170,8.88,73964.8,-6.37,-37.27,-37.27,0,*59
1485486147.47,58171,8.88,73966.5,-6.37,-37.27,-37.51,0,*59
1485486148.7,58172,8.88,73966.3,-6.37,-37.27,-37.33,0,*5E
1485486149.95,58173,8.88,73966.3,-6.37,-37.33,-37.51,0,*5E
1485486151.18,58174,8.88,73964.3,-6.37,-37.45,-37.57,0,*5E
1485486152.43,58175,8.94,73968.0,-6.37,-37.45,-37.51,0,*59
1485486153.66,58176,8.88,73964.3,-6.37,-37.15,-37.27,0,*5E
1485486154.89,58177,8.88,73966.5,-6.35,-37.27,-37.51,0,*5D
1485486156.1,58178,8.88,73964.8,-6.35,-37.45,-37.75,0,*50
1485486157.32,58179,8.88,73966.8,-6.37,-37.45,-37.45,0,*50
1485486158.59,58180,8.88,73966.8,-6.35,-37.21,-37.39,0,*5D
1485486159.82,58181,8.88,73964.8,-6.37,-37.33,-37.57,0,*55
1485486161.05,58182,8.88,73966.0,-6.35,-37.45,-37.63,0,*52
1485486162.28,58183,8.88,73964.8,-6.37,-37.33,-37.57,0,*57
1485486163.53,58184,8.88,73966.5,-6.37,-37.51,-37.75,0,*54
1485486164.79,58185,8.88,73962.0,-6.37,-37.51,-37.75,0,*55
1485486166.04,58186,8.94,73966.8,-6.37,-37.51,-37.75,0,*56
1485486167.3,58187,8.88,73968.5,-6.37,-37.51,-37.75,0,*57
1485486168.52,58188,8.88,73966.5,-6.37,-37.27,-37.45,0,*5A
1485486169.75,58189,8.88,73964.3,-6.39,-37.75,-37.81,0,*5A
1485486170.98,58190,8.88,73964.5,-6.37,-37.75,-37.87,0,*5A
1485486172.26,58191,8.94,73964.8,-6.37,-37.51,-37.69,0,*5D
1485486173.48,58192,8.88,73964.8,-6.37,-37.57,-37.75,0,*55
1485486174.71,58193,8.88,73964.0,-6.37,-37.45,-37.57,0,*57
1485486175.95,58194,8.88,73964.0,-6.39,-37.33,-37.51,0,*59
1485486177.17,58195,8.88,73966.0,-6.37,-37.15,-37.27,0,*53
1485486178.45,58196,8.88,73964.0,-6.37,-37.51,-37.69,0,*5A
1485486179.69,58197,8.88,73966.8,-6.37,-37.45,-37.69,0,*5E
1485486180.92,58198,8.88,73966.8,-6.37,-37.27,-37.45,0,*5B
1485486182.14,58199,8.88,73966.8,-6.37,-37.57,-37.75,0,*5E
1485486183.37,58200,8.88,73964.5,-6.37,-37.27,-37.45,0,*59
1485486184.59,58201,8.88,73966.8,-6.37,-37.27,-37.45,0,*58
1485486185.82,58202,8.88,73966.5,-6.37,-37.45,-37.57,0,*5C
1485486187.07,58203,8.88,73964.8,-6.37,-37.27,-37.51,0,*5F
1485486188.33,58204,8.88,73964.8,-6.37,-37.27,-37.51,0,*58
1485486189.56,58205,8.88,73966.5,-6.35,-37.39,-37.45,0,*51
1485486190.78,58206,8.88,73966.5,-6.37,-37.27,-37.33,0,*5E
1485486192.04,58207,8.88,73964.0,-6.35,-37.09,-37.21,0,*52
1485486193.28,58208,8.88,73968.5,-6.35,-37.27,-37.51,0,*56
1485486194.5,58209,8.88,73966.3,-6.37,-37.27,-37.45,0,*50
1485486195.76,58210,8.88,73964.0,-6.35,-37.09,-37.21,0,*54
1485486196.99,58211,8.88,73962.5,-6.37,-37.15,-37.33,0,*59
1485486198.22,58212,8.88,73966.3,-6.37,-37.27,-37.27,0,*5E
1485486199.48,58213,8.88,73964.5,-6.35,-37.21,-37.39,0,*54
1485486200.74,58214,8.88,73966.0,-6.37,-37.51,-37.75,0,*5E
1485486201.96,58215,8.88,73964.5,-6.37,-37.27,-37.45,0,*5D
1485486203.19,58216,8.88,73966.3,-6.35,-36.85,-36.91,0,*5D
1485486204.42,58217,8.88,73962.3,-6.37,-37.15,-37.27,0,*5A
1485486205.68,58218,8.88,73960.3,-6.35,-37.09,-37.21,0,*5C
1485486206.92,58219,8.88,73962.8,-6.35,-36.85,-37.09,0,*52
1485486208.15,58220,8.88,73966.3,-6.35,-37.03,-37.09,0,*57
1485486209.41,58221,8.88,73966.0,-6.35,-37.09,-37.21,0,*56
1485486210.7,58222,8.88,73964.0,-6.33,-37.09,-37.39,0,*5A
1485486211.98,58223,8.88,73960.3,-6.33,-36.91,-37.09,0,*58
1485486213.21,58224,8.88,73966.3,-6.31,-37.15,-37.21,0,*5A
1485486214.47,58225,8.88,73964.3,-6.33,-37.21,-37.27,0,*58
1485486215.73,58226,8.88,73962.3,-6.33,-37.21,-37.45,0,*5F
1485486217.02,58227,8.88,73966.0,-6.33,-37.21,-37.39,0,*55
1485486218.28,58228,8.88,73962.8,-6.33,-37.27,-37.39,0,*5C
1485486219.53,58229,8.88,73964.5,-6.33,-37.21,-37.45,0,*50
1485486220.77,58230,8.94,73964.5,-6.31,-37.21,-37.33,0,*5B
1485486222.02,58231,8.88,73962.5,-6.33,-37.45,-37.69,0,*55
1485486223.27,58232,8.88,73964.5,-6.33,-37.21,-37.45,0,*5A
1485486224.47,58233,8.88,73966.3,-6.31,-37.15,-37.33,0,*5F
1485486225.73,58234,8.88,73964.0,-6.31,-37.39,-37.39,0,*5C
1485486227.02,58235,8.88,73960.5,-6.33,-37.21,-37.39,0,*56
1485486228.22,58236,8.88,73962.3,-6.31,-37.15,-37.33,0,*5A
1485486229.46,58237,8.88,73960.8,-6.31,-37.15,-37.21,0,*58
1485486230.72,58238,8.94,73970.5,-6.31,-37.21,-37.39,0,*59
1485486231.92,58239,8.88,73964.0,-6.31,-37.33,-37.45,0,*50
1485486233.15,58240,8.94,73970.3,-6.31,-37.57,-37.63,0,*58
1485486234.35,58241,8.88,73966.8,-6.31,-37.45,-37.57,0,*5D
1485486235.59,58242,8.88,73962.8,-6.31,-37.45,-37.63,0,*59
1485486236.85,58243,8.88,73966.3,-6.31,-37.21,-37.39,0,*55
1485486238.11,58244,8.88,73962.0,-6.31,-37.21,-37.39,0,*52
1485486239.37,58245,8.88,73964.0,-6.31,-37.21,-37.39,0,*53
1485486240.58,58246,8.88,73962.8,-6.31,-37.03,-37.15,0,*5E
1485486241.81,58247,8.88,73964.8,-6.31,-37.21,-37.45,0,*5A
1485486243.1,58248,8.88,73966.8,-6.33,-37.39,-37.51,0,*5B
1485486244.33,58249,8.88,73966.0,-6.31,-37.21,-37.33,0,*55
1485486245.61,58250,8.88,73964.5,-6.33,-37.39,-37.51,0,*52
1485486246.81,58251,8.88,73962.0,-6.31,-37.15,-37.33,0,*5B
1485486248.05,58252,8.88,73962.3,-6.31,-37.15,-37.21,0,*5B
1485486249.25,58253,8.88,73964.5,-6.31,-37.15,-37.33,0,*59
1485486250.51,58254,8.88,73966.0,-6.31,-37.21,-37.39,0,*53
1485486251.73,58255,8.88,73964.8,-6.29,-37.33,-37.45,0,*53
1485486253.01,58256,8.88,73964.0,-6.29,-37.39,-37.39,0,*51
1485486254.3,58257,8.88,73964.5,-6.29,-37.39,-37.63,0,*5F
1485486255.52,58258,8.88,73964.0,-6.29,-37.45,-37.75,0,*5C
1485486256.81,58259,8.88,73964.3,-6.29,-37.39,-37.63,0,*51
1485486258.04,58260,8.88,73962.8,-6.31,-37.57,-37.63,0,*5A
1485486259.27,58261,8.88,73962.3,-6.31,-37.63,-37.75,0,*5B
1485486260.47,58262,8.88,73964.3,-6.31,-37.33,-37.45,0,*5E
1485486261.7,58263,8.88,73964.5,-6.31,-37.33,-37.39,0,*54
1485486262.93,58264,8.88,73966.3,-6.31,-37.45,-37.63,0,*5D
1485486264.13,58265,8.88,73966.0,-6.31,-37.33,-37.45,0,*59
1485486265.36,58266,8.88,73960.3,-6.31,-37.15,-37.39,0,*55
1485486266.65,58267,8.88,73960.0,-6.29,-37.21,-37.39,0,*5A
1485486267.86,58268,8.88,73964.0,-6.25,-37.27,-37.33,0,*55
1485486269.08,58269,8.88,73962.0,-6.29,-37.15,-37.33,0,*59
1485486270.34,58270,8.88,73962.0,-6.29,-37.15,-37.39,0,*5B
1485486271.59,58271,8.88,73960.0,-6.29,-37.15,-37.39,0,*5A
1485486272.85,58272,8.88,73964.3,-6.29,-37.15,-37.39,0,*59
1485486274.09,58273,8.88,73962.0,-6.25,-37.27,-37.39,0,*55
1485486275.34,58274,8.88,73962.5,-6.29,-37.21,-37.45,0,*53
1485486276.6,58275,8.88,73962.5,-6.29,-37.57,-37.81,0,*5B
1485486277.85,58276,8.88,73962.0,-6.29,-37.39,-37.57,0,*5B
1485486279.11,58277,8.88,73964.8,-6.29,-37.27,-37.39,0,*5D
1485486280.39,58278,8.88,73962.0,-6.29,-37.39,-37.63,0,*52
1485486281.67,58279,8.88,73960.8,-6.29,-37.21,-37.39,0,*55
1485486282.93,58280,8.88,73962.0,-6.29,-37.39,-37.57,0,*52
1485486284.15,58281,8.88,73962.5,-6.29,-37.15,-37.45,0,*5E
1485486285.44,58282,8.88,73962.3,-6.29,-37.21,-37.39,0,*51
1485486286.68,58283,8.88,73966.5,-6.25,-37.09,-37.15,0,*58
1485486287.89,58284,8.88,73966.3,-6.25,-37.15,-37.33,0,*56
1485486289.1,58285,8.88,73964.3,-6.25,-37.27,-37.33,0,*56
1485486290.33,58286,8.88,73964.8,-6.25,-37.09,-37.33,0,*59
1485486291.62,58287,8.88,73964.0,-6.29,-37.21,-37.39,0,*54
1485486292.85,58288,8.88,73964.0,-6.29,-37.33,-37.57,0,*50
1485486294.08,58289,8.88,73964.3,-6.25,-37.09,-37.27,0,*53
1485486295.32,58290,8.94,73968.5,-6.25,-37.15,-37.51,0,*57
1485486296.56,58291,8.88,73964.0,-6.25,-37.51,-37.57,0,*50
1485486297.79,58292,8.88,73962.0,-6.25,-37.09,-37.33,0,*5C
1485486299.05,58293,8.88,73960.8,-6.29,-37.21,-37.33,0,*5B
1485486300.26,58294,8.88,73962.3,-6.25,-37.27,-37.33,0,*56
1485486301.47,58295,8.88,73966.3,-6.25,-37.15,-37.33,0,*56
1485486302.71,58296,8.88,73960.0,-6.25,-37.39,-37.57,0,*59
1485486303.94,58297,8.88,73966.0,-6.25,-37.39,-37.57,0,*58
1485486305.21,58298,8.88,73964.0,-6.25,-37.39,-37.51,0,*51
1485486306.47,58299,8.88,73962.8,-6.25,-37.69,-37.69,0,*5E
1485486307.7,58300,8.88,73964.5,-6.25,-37.33,-37.51,0,*5B
1485486308.94,58301,8.88,73962.3,-6.25,-37.39,-37.57,0,*56
1485486310.15,58302,8.88,73964.5,-6.25,-37.33,-37.57,0,*5F
1485486311.41,58303,8.88,73966.0,-6.25,-37.51,-37.69,0,*57
1485486312.65,58304,8.88,73964.5,-6.25,-37.39,-37.57,0,*53
1485486313.86,58305,8.88,73966.3,-6.25,-37.33,-37.57,0,*58
1485486315.11,58306,8.88,73964.8,-6.29,-37.57,-37.63,0,*52
1485486316.37,58307,8.88,73964.8,-6.25,-37.39,-37.69,0,*5D
1485486317.61,58308,8.88,73960.3,-6.25,-37.33,-37.51,0,*53
1485486318.82,58309,8.88,73966.5,-6.25,-37.15,-37.33,0,*52
1485486320.08,58310,8.88,73962.8,-6.23,-37.39,-37.57,0,*50
1485486321.32,58311,8.88,73966.3,-6.25,-37.27,-37.51,0,*5E
1485486322.56,58312,8.88,73962.8,-6.25,-37.39,-37.57,0,*54
1485486323.8,58313,8.88,73966.0,-6.25,-37.09,-37.15,0,*50
1485486325.06,58314,8.88,73960.0,-6.23,-37.15,-37.39,0,*52
1485486326.32,58315,8.88,73960.5,-6.23,-37.39,-37.75,0,*55
1485486327.55,58316,8.88,73962.8,-6.25,-37.57,-37.69,0,*55
1485486328.79,58317,8.94,73966.3,-6.25,-37.69,-37.75,0,*54
1485486330.03,58318,8.88,73962.3,-6.25,-37.39,-37.57,0,*5E
1485486331.29,58319,8.88,73960.3,-6.25,-37.39,-37.51,0,*59
1485486332.53,58320,8.88,73960.3,-6.25,-37.33,-37.51,0,*59
1485486333.81,58321,8.88,73962.5,-6.29,-37.39,-37.63,0,*5F
1485486335.02,58322,8.88,73960.8,-6.25,-37.15,-37.33,0,*5B
1485486336.26,58323,8.88,73960.8,-6.25,-37.09,-37.27,0,*52
1485486337.49,58324,8.88,73960.8,-6.25,-37.09,-37.27,0,*55
1485486338.7,58325,8.88,73962.5,-6.25,-37.15,-37.33,0,*5C
1485486339.94,58326,8.94,73966.5,-6.25,-37.15,-37.39,0,*55
1485486341.18,58327,8.88,73964.8,-6.25,-37.39,-37.57,0,*52
1485486342.39,58328,8.88,73962.5,-6.25,-37.27,-37.33,0,*50
1485486343.63,58329,8.88,73964.3,-6.25,-37.33,-37.39,0,*5E
1485486344.89,58330,8.88,73962.8,-6.23,-37.39,-37.57,0,*52
1485486346.15,58331,8.88,73960.8,-6.23,-37.09,-37.33,0,*52
1485486347.36,58332,8.88,73960.0,-6.25,-37.27,-37.33,0,*5B
1485486348.57,58333,8.88,73962.8,-6.25,-37.27,-37.33,0,*5A
1485486349.8,58334,8.94,73960.5,-6.23,-37.15,-37.33,0,*5A
1485486351.03,58335,8.88,73958.8,-6.23,-37.15,-37.33,0,*5B
1485486352.27,58336,8.94,73962.3,-6.23,-36.97,-37.15,0,*57
1485486353.54,58337,8.94,73966.3,-6.23,-37.09,-37.15,0,*50
1485486354.8,58338,8.88,73962.8,-6.23,-37.27,-37.51,0,*53
1485486356.03,58339,8.88,73960.0,-6.23,-37.33,-37.57,0,*51
1485486357.27,58340,8.88,73962.3,-6.21,-37.21,-37.33,0,*5C
1485486358.53,58341,8.88,73962.8,-6.23,-37.27,-37.39,0,*53
1485486359.77,58342,8.88,73960.3,-6.21,-37.03,-37.09,0,*57
1485486361.0,58343,8.88,73960.8,-6.21,-37.21,-37.33,0,*5F
1485486362.24,58344,8.88,73964.0,-6.23,-37.57,-37.75,0,*59
1485486363.52,58345,8.88,73960.8,-6.23,-37.69,-37.69,0,*58
1485486364.78,58346,8.88,73962.8,-6.23,-37.39,-37.57,0,*53
1485486366.04,58347,8.88,73960.0,-6.23,-37.39,-37.57,0,*52
1485486367.3,58348,8.94,73962.0,-6.21,-37.39,-37.51,0,*59
1485486368.54,58349,8.88,73960.8,-6.21,-37.33,-37.51,0,*52
1485486369.8,58350,8.88,73962.0,-6.23,-37.51,-37.57,0,*5A
1485486371.08,58351,8.88,73960.3,-6.23,-37.51,-37.69,0,*56
1485486372.34,58352,8.88,73962.3,-6.23,-37.51,-37.75,0,*58
1485486373.59,58353,8.94,73966.8,-6.23,-37.57,-37.69,0,*52
1485486374.86,58354,8.94,73966.8,-6.23,-37.51,-37.75,0,*5E
1485486376.12,58355,8.94,73964.5,-6.23,-37.27,-37.39,0,*56
1485486377.38,58356,8.88,73960.5,-6.23,-37.51,-37.57,0,*5C
1485486378.63,58357,8.88,73964.3,-6.21,-37.63,-37.69,0,*53
1485486379.9,58358,8.88,73960.3,-6.23,-37.27,-37.51,0,*55
1485486381.16,58359,8.88,73960.0,-6.23,-37.51,-37.57,0,*53
1485486382.36,58360,8.94,73966.0,-6.21,-37.27,-37.27,0,*5D
1485486383.62,58361,8.88,73964.0,-6.23,-37.33,-37.51,0,*5A
1485486384.89,58362,8.88,73960.5,-6.23,-37.15,-37.39,0,*53
1485486386.12,58363,8.88,73962.0,-6.21,-37.09,-37.33,0,*57
1485486387.35,58364,8.88,73962.8,-6.21,-37.09,-37.33,0,*50
1485486388.61,58365,8.88,73960.3,-6.23,-37.33,-37.51,0,*5E
1485486389.85,58366,8.88,73960.3,-6.21,-37.33,-37.51,0,*5F
1485486391.08,58367,8.88,73960.3,-6.23,-37.57,-37.75,0,*58
1485486392.36,58368,8.88,73960.3,-6.23,-37.39,-37.69,0,*52
1485486393.6,58369,8.88,73960.3,-6.21,-37.21,-37.33,0,*57
1485486394.88,58370,8.88,73962.8,-6.23,-37.51,-37.69,0,*55
1485486396.16,58371,8.88,73960.5,-6.23,-37.39,-37.69,0,*5A
1485486397.43,58372,8.88,73962.0,-6.23,-37.27,-37.51,0,*5D
1485486398.66,58373,8.88,73962.0,-6.21,-37.45,-37.51,0,*5A
1485486399.92,58374,8.88,73960.8,-6.23,-37.39,-37.57,0,*52
1485486401.18,58375,8.88,73960.8,-6.23,-37.33,-37.51,0,*5F
1485486402.44,58376,8.88,73960.5,-6.23,-37.69,-37.57,0,*55
1485486403.68,58377,8.88,73962.5,-6.23,-37.57,-37.75,0,*59
1485486404.93,58378,8.88,73964.8,-6.23,-37.57,-37.69,0,*5B
1485486406.19,58379,8.88,73962.3,-6.23,-37.39,-37.57,0,*5F
1485486407.4,58380,8.88,73962.0,-6.21,-37.45,-37.57,0,*50
1485486408.66,58381,8.88,73966.0,-6.23,-37.39,-37.57,0,*58
1485486409.92,58382,8.88,73964.5,-6.23,-37.39,-37.57,0,*5B
1485486411.18,58383,8.88,73962.3,-6.23,-37.33,-37.51,0,*56
1485486412.46,58384,8.88,73960.5,-6.23,-37.51,-37.69,0,*5E
1485486413.7,58385,8.88,73962.5,-6.21,-37.45,-37.63,0,*52
1485486414.96,58386,8.88,73962.0,-6.23,-37.57,-37.69,0,*5A
1485486416.25,58387,8.94,73966.3,-6.23,-37.69,-37.63,0,*5C
1485486417.53,58388,8.94,73964.3,-6.23,-37.39,-37.69,0,*5C
1485486418.81,58389,8.88,73960.8,-6.23,-37.51,-37.69,0,*53
1485486420.1,58390,8.88,73962.5,-6.23,-37.51,-37.51,0,*50
1485486421.36,58391,8.88,73960.0,-6.23,-37.51,-37.75,0,*57
1485486422.6,58392,8.88,73960.8,-6.21,-37.45,-37.63,0,*54
1485486423.86,58393,8.88,73960.5,-6.23,-37.39,-37.57,0,*5B
1485486425.11,58394,8.94,73962.8,-6.23,-37.57,-37.69,0,*59
1485486426.37,58395,8.88,73960.3,-6.23,-37.39,-37.57,0,*5D
1485486427.65,58396,8.88,73956.0,-6.23,-37.51,-37.69,0,*5D
1485486428.94,58397,8.88,73962.8,-6.23,-37.39,-37.51,0,*59
1485486430.2,58398,8.94,73964.3,-6.23,-37.51,-37.57,0,*5E
1485486431.46,58399,8.88,73960.8,-6.23,-37.57,-37.69,0,*54
1485486432.72,58400,8.88,73960.8,-6.23,-37.51,-37.57,0,*58
1485486433.95,58401,8.88,73962.8,-6.23,-37.75,-37.75,0,*5F
1485486435.16,58402,8.88,73962.0,-6.21,-37.33,-37.57,0,*5C
1485486436.42,58403,8.88,73962.0,-6.23,-37.39,-37.57,0,*55
1485486437.7,58404,8.88,73964.0,-6.23,-37.51,-37.69,0,*51
1485486438.96,58405,8.88,73964.0,-6.23,-37.69,-37.87,0,*5B
1485486440.25,58406,8.88,73964.0,-6.23,-37.51,-37.69,0,*53
1485486441.49,58407,8.88,73958.5,-6.23,-37.87,-37.75,0,*54
1485486442.74,58408,8.88,73962.8,-6.23,-37.57,-37.69,0,*5B
1485486443.98,58409,8.88,73962.3,-6.25,-37.69,-37.75,0,*5C
1485486445.21,58410,8.94,73966.3,-6.25,-37.57,-37.69,0,*54
1485486446.44,58411,8.88,73962.0,-6.25,-37.57,-37.69,0,*55
1485486447.68,58412,8.88,73960.8,-6.25,-37.51,-37.57,0,*5D
1485486448.92,58413,8.88,73960.5,-6.25,-37.69,-37.75,0,*57
1485486450.17,58414,8.88,73964.5,-6.25,-37.69,-37.69,0,*5D
1485486451.43,58415,8.88,73960.8,-6.29,-37.63,-37.75,0,*57
1485486452.69,58416,8.88,73964.0,-6.25,-37.39,-37.69,0,*5A
1485486453.9,58417,8.88,73966.5,-6.25,-37.75,-37.87,0,*53
1485486455.13,58418,8.94,73970.0,-6.25,-37.57,-37.69,0,*5C
1485486456.39,58419,8.88,73962.0,-6.25,-37.69,-37.69,0,*50
1485486457.62,58420,8.88,73966.3,-6.25,-37.57,-37.69,0,*57
1485486458.88,58421,8.88,73962.8,-6.29,-37.57,-37.63,0,*50
1485486460.09,58422,8.88,73962.0,-6.25,-37.57,-37.75,0,*58
1485486461.3,58423,8.88,73962.5,-6.25,-37.75,-37.75,0,*59
1485486462.54,58424,8.88,73966.3,-6.25,-37.39,-37.57,0,*56
1485486463.79,58425,8.88,73964.8,-6.25,-37.63,-37.69,0,*55
1485486465.02,58426,8.88,73960.8,-6.29,-37.75,-37.75,0,*50
1485486466.25,58427,8.88,73962.3,-6.25,-37.57,-37.69,0,*50
1485486467.5,58428,8.94,73964.5,-6.29,-37.75,-37.93,0,*56
1485486468.78,58429,8.88,73962.8,-6.29,-37.93,-38.11,0,*5A
1485486470.01,58430,8.88,73962.8,-6.25,-37.57,-37.69,0,*56
1485486471.22,58431,8.88,73964.5,-6.25,-37.57,-37.75,0,*5A
1485486472.47,58432,8.88,73962.0,-6.29,-37.75,-37.81,0,*5E
1485486473.69,58433,8.88,73964.0,-6.25,-37.57,-37.87,0,*55
1485486474.91,58434,8.88,73960.3,-6.29,-37.57,-37.75,0,*53
1485486476.17,58435,8.88,73966.5,-6.29,-37.75,-37.81,0,*59
1485486477.45,58436,8.94,73966.0,-6.29,-37.93,-37.99,0,*5B
1485486478.7,58437,8.88,73960.8,-6.29,-37.75,-37.93,0,*58
1485486479.96,58438,8.94,73966.8,-6.31,-37.81,-37.93,0,*55
1485486481.25,58439,8.88,73964.8,-6.29,-37.81,-37.81,0,*5E
1485486482.48,58440,8.88,73966.3,-6.29,-37.45,-37.75,0,*53
1485486483.7,58441,8.88,73966.3,-6.29,-37.57,-37.75,0,*51
1485486484.96,58442,8.94,73964.3,-6.29,-37.75,-37.81,0,*59
1485486486.21,58443,8.94,73966.5,-6.29,-37.75,-37.93,0,*5B
1485486487.46,58444,8.88,73964.5,-6.29,-37.39,-37.75,0,*5C
1485486488.68,58445,8.88,73964.8,-6.29,-37.33,-37.45,0,*54
1485486489.92,58446,8.94,73964.0,-6.25,-37.33,-37.51,0,*5E
1485486491.18,58447,8.88,73966.5,-6.31,-37.63,-37.81,0,*52
1485486492.43,58448,8.88,73960.3,-6.31,-37.69,-37.81,0,*57
1485486493.69,58449,8.88,73960.8,-6.31,-37.63,-37.81,0,*5C
1485486494.96,58450,8.88,73962.3,-6.31,-37.81,-37.99,0,*51
1485486496.24,58451,8.88,73960.8,-6.29,-37.81,-37.81,0,*50
1485486497.5,58452,8.88,73966.5,-6.29,-37.57,-37.63,0,*54
1485486498.73,58453,8.88,73958.5,-6.31,-37.75,-37.93,0,*53
1485486499.93,58454,8.88,73962.5,-6.31,-37.75,-37.75,0,*5C
1485486501.16,58455,8.94,73966.3,-6.31,-37.75,-37.81,0,*56
1485486502.39,58456,8.88,73966.8,-6.31,-37.75,-37.93,0,*56
1485486503.66,58457,8.88,73966.5,-6.31,-37.81,-37.99,0,*56
1485486504.91,58458,8.88,73964.0,-6.31,-37.93,-37.99,0,*5A